Accueil
METAR-TAF:

METAR-TAF

Aéroports :

Laval, France

Entrammes

latitude: 48-01-56N, longitude: 000-44-34W, altitude: 101 m

Observation

Le bulletin a été fait il y a 35 minutes, à 06:00 UTC
Vent 4 kt de nord
Température 15°C
Humidité 94%
Pression 1018 hPa
Visibilité 10 km ou plus
Nuages fragmentés à une hauteur de 3400 ft
Ciel couvert à une hauteur de 15000 ft

METAR: LFOV 240600Z AUTO 36004KT 9999 BKN034 OVC150 15/14 Q1018

Heure: 08:35 (06:35 UTC)


TAF: absent

Observations et prévisions météorologiques de plus de 4000 aéroports (messages METAR et TAF).

Les stations disponibles sont représentées par des disques jaunes et rouges sur la carte.

Passer la souris dessus pour voir le nom de la station.

Cliquer dessus pour voir les observations et prévisions météorologiques.

Pour changer de carte: cliquez sur les boutons verts avec une croix noire pour zoomer, sur le bouton vert avec un tiret pour effectuer un zoom arrière, ou sur les flèches vertes pour les cartes adjacentes.


METAR-TAF: